Location: Frydek-Mistek
(49.6830°N, 18.3330°E)
Time: 04:55:20
(UTC+02:00)

ISS - Pass Details

Date: 19 May 2021
Orbit: 417 x 422 km, 51.6° (Epoch: 13 June)

Event Time Altitude Azimuth Distance (km) Brightness Sun altitude
Rises 00:30:33 0° 285° (WNW) 2,369 0.3 -20.5°
Reaches altitude 10° 00:32:39 10° 287° (WNW) 1,505 -0.7 -20.5°
Maximum altitude 00:36:02 76° 14° (NNE) 438 -3.7 -20.5°
Enters shadow 00:36:17 71° 59° (ENE) 450 -3.7 -20.5°
